User: anonymous   Login
Location: Albany
(35.0000°S, 118.0000°E)
Time: 02:38:28
(UTC-04:00)
Language:

ADEOS Rocket - Orbit

View from above orbital plane
View from above orbital plane
View from above satellite
View from above satellite

Ground track
Ground track

The orbit data is extracted from the following two-line orbital elements,

1 24279U 96046C   15213.15034881 -.00000005  00000-0  41654-4 0  9991
2 24279 098.6962 233.7189 0299196 239.1006 161.1159 13.47029944931882
Epoch (UTC): 01 August 2015 03:36:30
Eccentricity: 0.0299196
inclination: 98.6962°
perigee height: 860 km
apogee height: 1306 km
right ascension of ascending node: 233.7189°
argument of perigee: 239.1006°
revolutions per day: 13.47029944
mean anomaly at epoch: 161.1159°
orbit number at epoch: 93188

The dashed part of the orbit path shows where the satellite is in the earth's shadow,  

DLR